Flag for China Weather past 2 weeks in Xiamen, Fujian, China

Now
91 °F

Scattered clouds.


Feels Like: 111 °F
Forecast: 80 / 94 °F
Wind: 8 mph from Southeast

Location: Xiamen Airport

Current Time: Jul 28, 2014 at 2:48:19 PM

Latest Report: Jul 28, 2014 at 2:00 PM


Visibility: N/A

Pressure: 29.68 "Hg

Humidity: 71%

Dew point: 81 °F

Location of XiamenLocation

Historic Weather in Xiamen — Graph

°F

Xiamen temperature yesterday

Maximum temperature yesterday: 95 °F (at 12:00 PM)
Minimum temperature yesterday: 81 °F (at 6:00 AM)
Average temperature yesterday: 88 °F

Past Weeks' High & Low Weather Summary

 TemperatureHumidityPressure
High99 °F (Jul 22, 2:00 PM)100% (Jul 23, 1:00 PM)29.89 "Hg (Jul 23, 1:00 PM)
Low77 °F (Jul 24, 12:00 PM)39% (Jul 22, 12:00 PM)29.24 "Hg (Jul 23, 2:00 PM)
Average87 °F76%29.71 "Hg
* Reported Jul 13 1:00 PM — Jul 28 1:00 PM, Xiamen, Weather by CustomWeather, © 2014

Note: Actual official high and low records may vary slightly from our data, if they occured in-between our weather recording intervals... More about our weather records

Advertising

Xiamen weather history for previous 24 hours

 ConditionsComfort  
Time TempWeatherWind HumidityBarometerVisibility
1:00 PM
Jul 28
91 °FScattered clouds.8 mph67%29.68 "Hg5 mi
12:00 PM91 °FScattered clouds.6 mph67%29.71 "Hg5 mi
11:00 AM90 °FScattered clouds.6 mph75%29.74 "Hg5 mi
10:00 AM88 °FPartly sunny.3 mph79%29.74 "Hg5 mi
9:00 AM86 °FMostly cloudy.6 mph84%29.77 "Hg6 mi
8:00 AM86 °FPassing clouds.6 mph84%29.74 "Hg6 mi
7:00 AM84 °FPassing clouds.8 mph84%29.74 "Hg4 mi
6:00 AM82 °FPassing clouds.6 mph89%29.74 "Hg4 mi
5:00 AM82 °FClear.3 mph89%29.71 "Hg4 mi
4:00 AM82 °FPassing clouds.3 mph94%29.71 "HgN/A
3:00 AM82 °FClear.3 mph94%29.71 "Hg10 mi
2:00 AM82 °FPassing clouds.3 mph94%29.74 "HgN/A
1:00 AM84 °FPassing clouds.6 mph94%29.74 "HgN/A
12:00 AM84 °FPassing clouds.3 mph94%29.77 "HgN/A
11:00 PM
Jul 27
84 °FPassing clouds.3 mph89%29.77 "HgN/A
10:00 PM86 °FPassing clouds.6 mph84%29.77 "HgN/A
9:00 PM86 °FClear.3 mph75%29.74 "Hg10 mi
8:00 PM88 °FClear.3 mph70%29.74 "Hg10 mi
7:00 PM90 °FPassing clouds.6 mph67%29.71 "HgN/A
6:00 PM91 °FPassing clouds.8 mph59%29.68 "HgN/A
5:00 PM93 °FPassing clouds.8 mph56%29.68 "HgN/A
4:00 PM93 °FPassing clouds.10 mph59%29.71 "HgN/A
3:00 PM95 °FPassing clouds.10 mph53%29.74 "HgN/A
2:00 PM95 °FPassing clouds.10 mph53%29.77 "HgN/A
Weather by CustomWeather, © 2014

See weather overviewHow to use our weather pages